• In Belarus
  • List of Countries
  • For 7 days
  • Water Temperature
  • Satellite Maps
  • Weather Map
  • Weather Widgets
  • user-avatar
    Login

    Hourly Weather Gabrovo

    Today, 18 July, Wednesday

    Time Temperature Precipitation Wind Pressure Humidity
    00:00 +17°C° 0 mm 2 mps 696 mmHg 75%
    01:00 +17°C° 0 mm 2 mps 696 mmHg 76%
    02:00 +17°C° 0 mm 3 mps 696 mmHg 76%
    03:00 +17°C° 0 mm 3 mps 696 mmHg 76%
    04:00 +16°C° 0 mm 3 mps 696 mmHg 77%
    05:00 +16°C° 0 mm 3 mps 696 mmHg 77%
    06:00 +18°C° 0 mm 3 mps 696 mmHg 71%
    07:00 +19°C° 0 mm 4 mps 697 mmHg 65%
    08:00 +21°C° 0 mm 4 mps 697 mmHg 59%
    09:00 +22°C° 0 mm 5 mps 697 mmHg 55%
    10:00 +23°C° 0 mm 5 mps 697 mmHg 50%
    11:00 +26°C° 0 mm 5 mps 697 mmHg 46%
    12:00 +26°C° 0.1 mm 5 mps 697 mmHg 46%
    13:00 +26°C° 0.1 mm 6 mps 697 mmHg 46%
    14:00 +26°C° 0.1 mm 6 mps 697 mmHg 46%
    15:00 +26°C° 0.1 mm 6 mps 697 mmHg 47%
    16:00 +25°C° 0.1 mm 5 mps 696 mmHg 49%
    17:00 +25°C° 0.1 mm 5 mps 696 mmHg 51%
    18:00 +22°C° 0.2 mm 5 mps 696 mmHg 57%
    19:00 +21°C° 0.2 mm 4 mps 696 mmHg 63%
    20:00 +19°C° 0.2 mm 3 mps 696 mmHg 69%
    21:00 +18°C° 0 mm 3 mps 696 mmHg 71%
    22:00 +18°C° 0 mm 3 mps 696 mmHg 72%
    23:00 +17°C° 0 mm 3 mps 696 mmHg 74%

    Tomorrow, 19 July, Thursday

    Time Temperature Precipitation Wind Pressure Humidity
    00:00 +17°C° 0 mm 3 mps 696 mmHg 74%
    01:00 +17°C° 0 mm 3 mps 696 mmHg 74%
    02:00 +16°C° 0 mm 3 mps 696 mmHg 74%
    03:00 +16°C° 0 mm 3 mps 696 mmHg 73%
    04:00 +16°C° 0 mm 3 mps 696 mmHg 73%
    05:00 +14°C° 0 mm 3 mps 695 mmHg 73%
    06:00 +17°C° 0 mm 4 mps 696 mmHg 69%
    07:00 +18°C° 0 mm 4 mps 696 mmHg 65%
    08:00 +20°C° 0 mm 5 mps 696 mmHg 62%
    09:00 +21°C° 0 mm 5 mps 697 mmHg 59%
    10:00 +22°C° 0 mm 4 mps 697 mmHg 57%
    11:00 +23°C° 0 mm 4 mps 697 mmHg 55%
    12:00 +25°C° 0.2 mm 4 mps 697 mmHg 53%
    13:00 +25°C° 0.2 mm 4 mps 697 mmHg 52%
    14:00 +26°C° 0.2 mm 4 mps 697 mmHg 51%
    15:00 +25°C° 0.4 mm 4 mps 697 mmHg 55%
    16:00 +25°C° 0.4 mm 4 mps 697 mmHg 58%
    17:00 +23°C° 0.4 mm 4 mps 697 mmHg 62%
    18:00 +22°C° 0.6 mm 3 mps 697 mmHg 66%
    19:00 +21°C° 0.6 mm 3 mps 697 mmHg 71%
    20:00 +20°C° 0.6 mm 3 mps 697 mmHg 75%
    21:00 +19°C° 0 mm 2 mps 697 mmHg 77%
    22:00 +18°C° 0 mm 2 mps 697 mmHg 78%
    23:00 +17°C° 0 mm 2 mps 698 mmHg 80%

    Day after tomorrow, 20 July, Friday

    Time Temperature Precipitation Wind Pressure Humidity
    00:00 +17°C° 0 mm 2 mps 698 mmHg 80%
    01:00 +17°C° 0 mm 2 mps 698 mmHg 80%
    02:00 +17°C° 0 mm 2 mps 698 mmHg 81%
    03:00 +17°C° 0 mm 2 mps 697 mmHg 81%
    04:00 +16°C° 0 mm 2 mps 697 mmHg 82%
    05:00 +16°C° 0 mm 2 mps 697 mmHg 82%
    06:00 +18°C° 0 mm 2 mps 698 mmHg 77%
    07:00 +20°C° 0 mm 3 mps 698 mmHg 72%
    08:00 +22°C° 0 mm 3 mps 699 mmHg 67%
    09:00 +24°C° 0.1 mm 3 mps 699 mmHg 63%
    10:00 +25°C° 0.1 mm 3 mps 699 mmHg 59%
    11:00 +27°C° 0.1 mm 3 mps 700 mmHg 54%
    12:00 +27°C° 1.1 mm 3 mps 699 mmHg 53%
    13:00 +28°C° 1.1 mm 3 mps 699 mmHg 52%
    14:00 +28°C° 1.1 mm 3 mps 699 mmHg 51%
    15:00 +28°C° 0.9 mm 3 mps 699 mmHg 52%
    16:00 +28°C° 0.9 mm 3 mps 699 mmHg 54%
    17:00 +27°C° 0.9 mm 3 mps 699 mmHg 55%
    18:00 +26°C° 0.3 mm 2 mps 699 mmHg 60%
    19:00 +24°C° 0.3 mm 2 mps 699 mmHg 64%
    20:00 +23°C° 0.3 mm 2 mps 699 mmHg 68%
    21:00 +21°C° 0.1 mm 2 mps 699 mmHg 70%
    22:00 +20°C° 0.1 mm 2 mps 699 mmHg 72%
    23:00 +20°C° 0.1 mm 2 mps 699 mmHg 74%

    21 July, Saturday

    Time Temperature Precipitation Wind Pressure Humidity
    00:00 +19°C° 0 mm 2 mps 699 mmHg 76%
    01:00 +19°C° 0 mm 2 mps 699 mmHg 78%
    02:00 +18°C° 0 mm 2 mps 699 mmHg 79%
    03:00 +18°C° 0 mm 2 mps 699 mmHg 80%
    04:00 +17°C° 0 mm 2 mps 699 mmHg 81%
    05:00 +17°C° 0 mm 2 mps 699 mmHg 82%
    06:00 +19°C° 0 mm 2 mps 699 mmHg 75%
    07:00 +21°C° 0 mm 2 mps 699 mmHg 69%
    08:00 +23°C° 0 mm 2 mps 700 mmHg 62%
    09:00 +25°C° 0 mm 2 mps 700 mmHg 57%
    10:00 +26°C° 0 mm 2 mps 700 mmHg 53%
    11:00 +28°C° 0 mm 2 mps 700 mmHg 48%
    12:00 +28°C° 0.1 mm 2 mps 700 mmHg 46%
    13:00 +29°C° 0.1 mm 2 mps 700 mmHg 44%
    14:00 +30°C° 0.1 mm 2 mps 700 mmHg 42%
    15:00 +30°C° 0 mm 2 mps 700 mmHg 42%
    16:00 +30°C° 0 mm 2 mps 700 mmHg 43%
    17:00 +30°C° 0 mm 2 mps 699 mmHg 43%
    18:00 +28°C° 0 mm 2 mps 699 mmHg 49%
    19:00 +26°C° 0 mm 2 mps 699 mmHg 55%
    20:00 +24°C° 0 mm 1 mps 699 mmHg 62%
    21:00 +23°C° 0 mm 1 mps 699 mmHg 63%
    22:00 +22°C° 0 mm 1 mps 699 mmHg 64%
    23:00 +21°C° 0 mm 1 mps 699 mmHg 66%

    22 July, Sunday

    Time Temperature Precipitation Wind Pressure Humidity
    00:00 +21°C° 0 mm 1 mps 698 mmHg 67%
    01:00 +20°C° 0 mm 1 mps 698 mmHg 68%
    02:00 +20°C° 0 mm 1 mps 698 mmHg 69%
    03:00 +20°C° 0 mm 1 mps 698 mmHg 69%
    04:00 +19°C° 0 mm 1 mps 698 mmHg 70%
    05:00 +19°C° 0 mm 1 mps 698 mmHg 71%
    06:00 +21°C° 0 mm 1 mps 698 mmHg 64%
    07:00 +23°C° 0 mm 1 mps 699 mmHg 58%
    08:00 +25°C° 0 mm 1 mps 699 mmHg 52%
    09:00 +27°C° 0 mm 1 mps 699 mmHg 46%
    10:00 +28°C° 0 mm 1 mps 699 mmHg 40%
    11:00 +30°C° 0 mm 2 mps 699 mmHg 34%
    12:00 +31°C° 0 mm 2 mps 699 mmHg 33%
    13:00 +32°C° 0 mm 1 mps 698 mmHg 31%
    14:00 +32°C° 0 mm 1 mps 698 mmHg 29%
    15:00 +32°C° 0 mm 1 mps 698 mmHg 31%
    16:00 +32°C° 0 mm 1 mps 698 mmHg 32%
    17:00 +32°C° 0 mm 1 mps 697 mmHg 33%
    18:00 +30°C° 0 mm 1 mps 697 mmHg 38%
    19:00 +27°C° 0 mm 2 mps 697 mmHg 44%
    20:00 +25°C° 0 mm 2 mps 696 mmHg 49%
    21:00 +25°C° 0 mm 2 mps 696 mmHg 51%
    22:00 +24°C° 0 mm 2 mps 696 mmHg 53%
    23:00 +23°C° 0 mm 2 mps 696 mmHg 55%

    23 July, Monday

    Time Temperature Precipitation Wind Pressure Humidity
    00:00 +23°C° 0 mm 2 mps 696 mmHg 57%
    01:00 +21°C° 0 mm 2 mps 695 mmHg 59%
    02:00 +21°C° 0 mm 2 mps 695 mmHg 62%
    03:00 +20°C° 0.1 mm 2 mps 695 mmHg 65%
    04:00 +20°C° 0.1 mm 2 mps 695 mmHg 68%
    05:00 +19°C° 0.1 mm 2 mps 694 mmHg 70%
    06:00 +21°C° 0.3 mm 1 mps 695 mmHg 68%
    07:00 +23°C° 0.3 mm 1 mps 695 mmHg 66%
    08:00 +24°C° 0.3 mm 1 mps 695 mmHg 63%
    09:00 +24°C° 0.1 mm 1 mps 695 mmHg 61%
    10:00 +25°C° 0.1 mm 1 mps 695 mmHg 58%
    11:00 +26°C° 0.1 mm 1 mps 695 mmHg 55%
    12:00 +27°C° 0.2 mm 1 mps 695 mmHg 52%
    13:00 +28°C° 0.2 mm 1 mps 695 mmHg 49%
    14:00 +29°C° 0.2 mm 1 mps 695 mmHg 46%
    15:00 +28°C° 0.2 mm 2 mps 695 mmHg 47%
    16:00 +28°C° 0.2 mm 2 mps 694 mmHg 48%
    17:00 +28°C° 0.2 mm 3 mps 694 mmHg 50%
    18:00 +25°C° 1.1 mm 3 mps 694 mmHg 60%
    19:00 +22°C° 1.1 mm 3 mps 694 mmHg 70%
    20:00 +20°C° 1.1 mm 3 mps 694 mmHg 80%
    21:00 +19°C° 0.3 mm 2 mps 694 mmHg 82%
    22:00 +20°C° 0.3 mm 1 mps 694 mmHg 84%
    23:00 +19°C° 0.3 mm 1 mps 695 mmHg 86%
    Show more